Regional Weather Roundup
Issued by NWS Sioux Falls, SD

Home | Current Version | Previous Version | Text Only | Print | Product List | Glossary Off
Versions: 1 2 3 4 5 6 7 8 9 10 11 12 13 14 15 16 17 18 19 20 21 22 23 24 25 26 27 28 29 30 31 32 33 34 35 36 37 38 39 40 41 42 43 44 45 46 47 48 49 50

000
ASUS43 KFSD 011502
RWRFSD

WEATHER ROUNDUP FOR SE SOUTH DAKOTA/SW MINNESOTA/NW IOWA
NATIONAL WEATHER SERVICE SIOUX FALLS SD
1000 AM CDT FRI AUG 01 2014

NOTE: "FAIR" INDICATES FEW OR NO CLOUDS BELOW 12,000 FEET WITH NO
SIGNIFICANT WEATHER AND OR OBSTRUCTIONS TO VISIBILITY.


SDZ038>040-050-052>070-011600-
SOUTHEAST SOUTH DAKOTA

CITY           SKY/WX    TMP DP  RH WIND       PRES   REMARKS
CHAMBERLAIN    SUNNY     74  63  70 SE3       30.10S
HURON          SUNNY     71  61  70 CALM      30.09S
MADISON        FAIR      68  64  88 CALM      30.12S
MITCHELL       SUNNY     72  65  78 CALM      30.10S
SIOUX FALLS    MOSUNNY   71  62  73 CALM      30.11S
WINNER         FAIR      80  56  43 SE10      30.10R
YANKTON        SUNNY     66  63  88 CALM      30.11S
$$

MNZ071-072-080-081-089-090-097-098-011600-
SOUTHWEST MINNESOTA

CITY           SKY/WX    TMP DP  RH WIND       PRES   REMARKS
FAIRMONT       SUNNY     73  59  60 N3        30.10R
JACKSON        SUNNY     72  61  68 NW3       30.11S
LUVERNE        SUNNY     70  63  78 CALM      30.12S
MARSHALL       SUNNY     73  61  64 CALM      30.09S
MONTEVIDEO     SUNNY     75  66  73 CALM      30.09S
PIPESTONE      SUNNY     72  57  60 CALM      30.11S
REDWOOD FALLS  SUNNY     72  59  63 VRB3      30.08S
TRACY          SUNNY     75  60  59 CALM      30.10S
WINDOM         SUNNY     73  61  64 CALM      30.10S
WORTHINGTON    SUNNY     70  63  78 SW3       30.13S
$$

IAZ001>003-012>014-020>022-031-032-NEZ013-014-SDZ071-011600-
NORTHWEST IOWA

CITY           SKY/WX    TMP DP  RH WIND       PRES   REMARKS
CHEROKEE       SUNNY     70  64  82 CALM      30.11S
DENISON        SUNNY     70  64  83 CALM      30.09S
ESTHERVILLE    SUNNY     71  63  75 NW6       30.10S
LE MARS        SUNNY     70  63  78 CALM      30.11S
ORANGE CITY    SUNNY     72  63  73 W3        30.11S
SHELDON        SUNNY     72  63  73 CALM      30.10S
SIOUX CITY     SUNNY     72  62  71 NW3       30.11R
SPENCER        SUNNY     74  62  66 VRB5      30.11R
STORM LAKE     SUNNY     70  63  78 CALM      30.12S
$$

ABBREVIATIONS USED IN REMARKS
   TC - TEMPERATURE IN CELSIUS
  WCI - WIND CHILL INDEX
   HX - HEAT INDEX
  VSB - VISIBILITY




USA.gov is the U.S. government's official web portal to all federal, state and local government web resources and services.